| time (UTC) | temp F | wind direction | speed MPH | gust MPH | rain 1hr in | rain 24hr in | rain mn in | humidity % | barometer mb |
| 20260502163031 | 66 | 33 | 2.0 | 0.0 | 0.00 | 0.00 | 0.00 | 63 | 1022.0 |
| 20260502161526 | 64 | 10 | 2.0 | 0.0 | 0.00 | 0.00 | 0.00 | 62 | 1022.1 |
| 20260502151516 | 62 | 30 | 1.0 | 0.0 | 0.00 | 0.00 | 0.00 | 71 | 1022.0 |
| 20260502123048 | 47 | 301 | 0.0 | 0.0 | 0.00 | 0.00 | 0.00 | 93 | 1020.4 |
| 20260502121550 | 47 | 303 | 0.0 | 0.0 | 0.00 | 0.00 | 0.00 | 93 | 1020.1 |
| 20260502114538 | 47 | 320 | 0.0 | 0.0 | 0.00 | 0.00 | 0.00 | 92 | 1019.6 |
| 20260502113038 | 47 | 338 | 0.0 | 0.0 | 0.00 | 0.00 | 0.00 | 92 | 1019.4 |
| 20260502111539 | 47 | 338 | 0.0 | 0.0 | 0.00 | 0.00 | 0.00 | 91 | 1019.3 |
| 20260502110036 | 47 | 338 | 0.0 | 0.0 | 0.00 | 0.00 | 0.00 | 91 | 1019.0 |
| 20260502104530 | 48 | 338 | 0.0 | 0.0 | 0.00 | 0.00 | 0.00 | 91 | 1018.8 |
| 20260502103028 | 48 | 338 | 0.0 | 0.0 | 0.00 | 0.00 | 0.00 | 91 | 1018.5 |
| 20260502101526 | 49 | 357 | 0.0 | 0.0 | 0.00 | 0.00 | 0.00 | 91 | 1018.1 |
| 20260502091519 | 49 | 347 | 1.0 | 0.0 | 0.00 | 0.00 | 0.00 | 92 | 1017.6 |
| 20260502071511 | 50 | 352 | 1.0 | 0.0 | 0.00 | 0.00 | 0.00 | 92 | 1017.4 |
| 20260502070019 | 50 | 323 | 0.0 | 0.0 | 0.00 | 0.00 | 0.00 | 92 | 1017.4 |
| 20260502064507 | 50 | 4 | 0.0 | 0.0 | 0.00 | 0.00 | 0.00 | 91 | 1017.3 |
| 20260502063006 | 50 | 322 | 0.0 | 0.0 | 0.00 | 0.00 | 0.00 | 91 | 1017.3 |
| 20260502061504 | 51 | 322 | 0.0 | 0.0 | 0.00 | 0.00 | 0.00 | 91 | 1017.3 |
| 20260502060002 | 51 | 16 | 1.0 | 0.0 | 0.00 | 0.00 | 0.00 | 91 | 1017.5 |
| 20260502054501 | 51 | 20 | 1.0 | 0.0 | 0.00 | 0.00 | 0.00 | 91 | 1017.4 |
| 20260502053100 | 51 | 354 | 0.0 | 0.0 | 0.00 | 0.00 | 0.00 | 91 | 1017.2 |
| 20260502051558 | 52 | 34 | 0.0 | 0.0 | 0.00 | 0.00 | 0.00 | 91 | 1017.2 |
| 20260502050101 | 52 | 353 | 0.0 | 0.0 | 0.00 | 0.00 | 0.00 | 91 | 1017.1 |
| 20260502044555 | 52 | 355 | 0.0 | 0.0 | 0.00 | 0.00 | 0.89 | 90 | 1017.0 |
| 20260502043100 | 53 | 358 | 0.0 | 0.0 | 0.00 | 0.00 | 0.89 | 90 | 1017.0 |
| 20260502041553 | 53 | 360 | 0.0 | 0.0 | 0.00 | 0.00 | 0.89 | 90 | 1017.0 |
| 20260502040055 | 53 | 35 | 0.0 | 0.0 | 0.00 | 0.00 | 0.89 | 89 | 1016.8 |
| 20260502034554 | 53 | 10 | 1.0 | 0.0 | 0.00 | 0.00 | 0.89 | 89 | 1017.1 |
| 20260502033050 | 53 | 18 | 1.0 | 0.0 | 0.00 | 0.00 | 0.89 | 89 | 1017.0 |
| 20260502031549 | 53 | 42 | 1.0 | 0.0 | 0.00 | 0.00 | 0.89 | 89 | 1016.9 |
| 20260502030052 | 53 | 7 | 1.0 | 0.0 | 0.00 | 0.00 | 0.89 | 89 | 1016.7 |
| 20260502024550 | 53 | 27 | 1.0 | 0.0 | 0.00 | 0.00 | 0.89 | 89 | 1016.5 |
| 20260502023049 | 53 | 29 | 2.0 | 0.0 | 0.00 | 0.00 | 0.89 | 88 | 1016.3 |
| 20260502021541 | 53 | 36 | 1.0 | 0.0 | 0.00 | 0.00 | 0.89 | 89 | 1016.0 |
| 20260502020038 | 53 | 56 | 1.0 | 0.0 | 0.00 | 0.00 | 0.89 | 89 | 1015.4 |
| 20260502014536 | 53 | 22 | 1.0 | 0.0 | 0.00 | 0.00 | 0.89 | 89 | 1015.2 |
| 20260502013042 | 53 | 35 | 2.0 | 0.0 | 0.00 | 0.00 | 0.89 | 88 | 1015.0 |
| 20260502011534 | 53 | 49 | 2.0 | 0.0 | 0.00 | 0.00 | 0.89 | 88 | 1014.8 |
| 20260502010030 | 53 | 55 | 2.0 | 0.0 | 0.00 | 0.00 | 0.89 | 89 | 1014.5 |
| 20260502004547 | 53 | 55 | 3.0 | 0.0 | 0.00 | 0.00 | 0.89 | 90 | 1014.2 |
| 20260502003027 | 53 | 33 | 3.0 | 0.0 | 0.00 | 0.00 | 0.89 | 91 | 1014.1 |
| 20260502001527 | 53 | 24 | 3.0 | 0.0 | 0.00 | 0.00 | 0.89 | 91 | 1013.7 |
| 20260502000043 | 53 | 50 | 3.0 | 0.0 | 0.00 | 0.00 | 0.89 | 92 | 1013.5 |
| 20260501234530 | 53 | 48 | 3.0 | 0.0 | 0.00 | 0.00 | 0.89 | 92 | 1013.9 |
| 20260501233022 | 54 | 4 | 3.0 | 0.0 | 0.00 | 0.00 | 0.89 | 93 | 1013.5 |
| 20260501231535 | 54 | 41 | 3.0 | 0.0 | 0.00 | 0.00 | 0.89 | 93 | 1012.8 |
| 20260501230021 | 54 | 56 | 3.0 | 0.0 | 0.00 | 0.00 | 0.89 | 93 | 1013.1 |
| 20260501224518 | 54 | 27 | 4.0 | 0.0 | 0.00 | 0.00 | 0.88 | 93 | 1012.9 |
| 20260501223015 | 55 | 355 | 3.0 | 0.0 | 0.00 | 0.00 | 0.88 | 93 | 1012.6 |
| 20260501221518 | 55 | 14 | 3.0 | 0.0 | 0.00 | 0.00 | 0.87 | 93 | 1012.6 |
| 20260501220014 | 55 | 21 | 2.0 | 0.0 | 0.00 | 0.00 | 0.86 | 93 | 1012.6 |
| 20260501214517 | 55 | 20 | 3.0 | 0.0 | 0.00 | 0.00 | 0.83 | 92 | 1012.9 |
| 20260501213011 | 55 | 11 | 2.0 | 0.0 | 0.00 | 0.00 | 0.81 | 93 | 1012.6 |
| 20260501211511 | 56 | 60 | 3.0 | 0.0 | 0.00 | 0.00 | 0.81 | 93 | 1011.9 |
| 20260501210009 | 56 | 349 | 2.0 | 0.0 | 0.00 | 0.00 | 0.81 | 93 | 1011.3 |
| 20260501204509 | 56 | 29 | 4.0 | 0.0 | 0.00 | 0.00 | 0.81 | 93 | 1010.8 |
| 20260501203006 | 56 | 101 | 3.0 | 0.0 | 0.00 | 0.00 | 0.81 | 93 | 1010.9 |
| 20260501201506 | 56 | 67 | 3.0 | 0.0 | 0.00 | 0.00 | 0.81 | 94 | 1010.0 |
| 20260501200004 | 57 | 8 | 3.0 | 0.0 | 0.00 | 0.00 | 0.81 | 94 | 1010.8 |
| 20260501194510 | 57 | 42 | 2.0 | 0.0 | 0.00 | 0.00 | 0.81 | 94 | 1010.6 |
| 20260501193007 | 57 | 356 | 1.0 | 0.0 | 0.00 | 0.00 | 0.79 | 94 | 1011.6 |
| 20260501191503 | 56 | 12 | 2.0 | 0.0 | 0.00 | 0.00 | 0.78 | 94 | 1011.8 |
| 20260501190003 | 57 | 56 | 2.0 | 0.0 | 0.00 | 0.00 | 0.78 | 94 | 1010.5 |
| 20260501184502 | 57 | 58 | 3.0 | 0.0 | 0.00 | 0.00 | 0.78 | 94 | 1010.2 |
| 20260501183112 | 56 | 40 | 2.0 | 0.0 | 0.00 | 0.00 | 0.77 | 94 | 1011.6 |
| 20260501181603 | 56 | 360 | 2.0 | 0.0 | 0.00 | 0.00 | 0.73 | 94 | 1013.4 |
| 20260501180100 | 56 | 311 | 2.0 | 0.0 | 0.00 | 0.00 | 0.65 | 94 | 1013.9 |